Location: Aula-Vintri
(58.3875°N, 22.4322°E)
Time: 07:24:10
(UTC+00:00)

Cosmos 2227 Rocket - Pass Details

Date: 13 October 2019
Orbit: 838 x 846 km, 71.0° (Epoch: 19 November)

Event Time Altitude Azimuth Distance (km) Brightness Sun altitude
Rises 16:20:14 0° 254° (WSW) 3,403 7.4 -7.2°
Reaches altitude 10° 16:22:54 10° 264° (W) 2,472 6.4 -7.5°
Maximum altitude 16:28:05 35° 330° (NNW) 1,335 3.6 -8.2°
Drops below altitude 10° 16:33:19 10° 36° (NE) 2,483 4.3 -8.9°
Enters shadow 16:35:54 - 45° (NE) 3,391 4.9 -9.2°
